Location: ??
(34.7707°N, 135.6540°E)
Time: 10:01:45
(UTC+00:00)

PAYLOAD A - Visible Passes

Search period start: 03 August 2020 00:00
Search period end: 13 August 2020 00:00
Orbit: 693 x 831 km, 98.3° (Epoch: 02 August)

Date Brightness Start Highest point End Pass type
(mag) Time Alt. Az. Time Alt. Az. Time Alt. Az.
03 Aug 6.6 17:34:56 10° ENE 17:37:45 14° E 17:40:32 10° SE visible
03 Aug 4.2 19:11:44 10° N 19:17:02 58° WNW 19:22:08 10° SSW visible
04 Aug 4.6 18:34:05 10° NNE 18:39:23 60° E 18:44:30 10° S visible
05 Aug 6.0 17:57:11 10° NE 18:01:31 25° E 18:05:43 10° SSE visible
05 Aug 4.9 19:35:38 10° N 19:40:26 34° WNW 19:45:05 10° SW visible
06 Aug 4.0 18:57:34 10° N 19:02:56 80° WNW 19:08:05 10° SSW visible
07 Aug 5.1 18:20:09 10° NNE 18:25:12 43° E 18:30:04 10° S visible
08 Aug 6.4 17:43:44 10° NE 17:47:15 18° E 17:50:40 10° SE visible
08 Aug 4.4 19:21:19 10° N 19:26:23 46° WNW 19:31:17 10° SW visible
09 Aug 4.2 18:43:29 10° NNE 18:48:48 75° ESE 18:53:52 10° S visible
10 Aug 5.7 18:06:22 10° NE 18:10:59 30° E 18:15:26 10° SSE visible
10 Aug 5.1 19:45:20 10° NNW 19:49:44 27° WNW 19:54:01 10° SW visible
11 Aug 6.7 17:30:51 10° ENE 17:32:56 12° E 17:34:59 10° ESE visible
11 Aug 4.1 19:07:05 10° N 19:12:18 64° WNW 19:17:18 10° SSW visible
12 Aug 4.7 18:29:29 10° NNE 18:34:38 53° E 18:39:17 11° S visible
